CAPE
378 589 410 6 107 95 91 103 165 222 203 127 179 367 308 154 140 167 213 110 46 4 1 38 3 0 112 142 91 163 92 102 89 92 136 182 200 282 185 197 97 33 0
700 628 374 110 53 341 68 139 214 233 189 69 105 117 131 149 131 161 105 32 7 15 38 62 52 55 155 156 45 52 123 179 102 83 142 113 112 283 63 51 0 0 0
1051 454 444 360 302 285 220 107 125 148 111 74 142 100 88 7 0 0 0 0 0 0 0 0 0 0 12 13 72 83 152 176 169 72 75 153 86 98 118 16 4 0 0
779 784 418 374 285 292 381 318 189 119 80 43 33 73 86 46 3 0 0 0 0 0 0 0 0 1 0 0 0 0 3 9 57 47 61 65 61 102 126 79 3 0 0
454 781 430 170 306 173 450 328 244 153 59 0 0 0 2 0 0 0 0 0 0 0 0 0 0 0 0 0 0 0 0 5 1 13 7 27 64 150 168 77 84 28 0
386 716 310 137 142 128 281 134 148 146 68 32 13 5 6 0 0 0 0 0 0 0 0 0 0 0 0 0 0 0 0 1 25 32 72 82 4 0 0 0 0 0 0
563 378 154 122 187 93 94 130 151 118 71 27 0 0 0 0 0 1 1 0 0 0 0 0 0 0 0 0 0 0 0 0 0 20 16 0 0 0 0 0 0 0 0
833 395 141 60 80 176 111 96 88 19 0 0 0 0 0 0 0 0 15 0 0 0 0 0 0 0 0 0 0 0 0 0 0 0 0 0 0 0 0 0 0 0 0
1033 514 154 93 70 48 92 61 10 0 0 0 0 0 0 0 0 0 0 0 0 0 0 0 0 0 0 0 0 0 0 0 0 0 0 0 0 0 0 0 0 0 0
100 145 2 0 0 2 0 0 0 0 0 0 0 0 0 0 0 0 0 0 0 0 0 0 0 0 0 0 0 0 0 0 0 0 0 0 0 0 0 0 0 0 0
5 3 1 3 3 5 0 0 0 0 0 1 3 1 0 0 0 0 0 0 0 0 0 0 0 0 0 0 0 0 0 0 0 0 0 0 0 0 0 0 0 0 0
6 6 7 5 5 1 0 0 0 0 0 1 0 0 1 1 0 0 0 0 0 0 0 0 0 0 0 0 0 0 0 0 0 0 0 0 0 0 0 0 0 0 0
6 7 7 5 5 3 3 3 0 0 0 0 1 2 3 1 0 0 0 0 0 0 0 0 0 0 0 0 0 0 0 0 0 0 0 0 0 0 0 0 0 0 0
5 4 3 4 2 2 1 2 0 1 1 0 0 0 0 0 0 0 0 0 0 0 0 0 0 0 0 0 0 0 0 0 0 0 0 0 0 0 0 0 0 0 0
1 0 0 0 0 0 0 0 0 0 0 0 0 0 0 0 0 0 0 0 0 0 0 0 0 0 0 0 0 0 0 0 0 0 0 0 0 0 0 0 0 0 0
0 0 0 0 0 0 0 0 0 0 0 0 0 0 0 0 0 0 0 0 0 0 0 0 0 0 0 0 0 0 0 0 0 0 0 0 0 0 0 0 0 0 0
0 0 0 0 0 0 0 0 0 0 0 0 0 0 0 0 0 0 0 0 0 0 0 0 0 0 0 0 0 0 0 0 0 2 0 0 0 0 0 0 0 0 0
0 0 0 0 0 0 0 0 0 0 0 0 0 0 0 0 0 0 0 0 0 0 0 0 0 0 0 0 0 0 0 0 0 0 0 0 0 0 0 0 0 0 0
0 0 0 0 0 0 0 0 0 0 0 0 0 0 0 0 0 0 0 0 0 0 0 0 0 0 0 0 0 0 0 0 0 0 0 0 0 0 0 0 0 0 0
0 0 0 0 0 0 0 0 0 0 0 0 0 0 0 0 0 0 0 0 0 0 0 0 0 0 0 0 0 0 0 0 1 0 0 0 0 0 0 0 0 0 0
0 0 0 2 1 0 0 0 0 0 0 0 0 0 0 0 0 0 0 0 0 0 0 0 0 0 0 0 0 0 0 0 0 0 0 0 0 0 0 0 0 0 0
1 1 1 0 0 0 0 0 0 0 1 0 0 0 0 0 0 0 0 0 0 0 0 0 0 0 0 0 0 0 0 0 0 0 0 0 0 0 0 0 0 0 0
12 4 5 1 0 0 0 0 0 1 1 0 0 0 0 0 0 0 0 0 0 0 0 0 0 0 0 0 0 0 3 1 0 0 0 0 0 0 0 0 0 0 0
11 0 0 11 0 0 0 0 0 0 0 0 0 0 0 0 0 0 0 0 0 0 0 0 0 0 0 0 0 1 0 0 0 0 0 0 0 0 0 0 0 0 0
0 2 0 10 3 1 1 1 2 0 0 0 0 0 0 0 0 0 0 0 0 0 0 0 0 0 0 0 0 0 0 0 0 0 0 0 0 0 0 0 0 0 0
0 0 0 0 2 0 4 0 0 0 0 0 0 0 0 0 0 0 0 0 0 0 0 0 0 0 0 0 0 0 0 0 0 0 0 0 0 0 0 0 0 0 0
CIN
-112 -40 -20 -199 -43 -45 -38 -65 -29 -21 -20 -37 -12 -2 -1 -9 -8 -12 -8 -30 -46 -24 -27 -49 -24 -18 -27 -9 -21 -15 -17 -23 -12 -30 -34 -41 -17 -9 -54 -69 -106 -103 0
-58 -27 -44 -79 -79 -3 -56 -19 -3 -3 -5 -33 -21 -8 -6 -8 -7 -4 -9 -15 -29 -18 -18 -24 -21 -23 -10 -13 -21 -16 -15 -11 -17 -19 -25 -34 -36 -30 -74 -98 0 0 0
-19 -53 -26 -26 -6 -6 -14 -33 -30 -10 -12 -13 -2 -2 -6 -44 -30 0 0 0 0 0 0 0 0 -11 -56 -55 -22 -29 -14 -12 -16 -25 -29 -46 -85 -63 -68 -156 -252 0 0
-17 -14 -43 -32 -30 -13 -3 -3 -12 -11 -11 -24 -33 -6 -3 -7 -50 0 0 0 0 0 0 0 0 -35 0 0 -31 -37 -16 -19 -30 -13 -15 -64 -85 -78 -41 -77 -14 0 0
-48 -16 -41 -58 -13 -26 -4 -3 -3 -6 -7 0 0 -5 -10 0 -31 -24 0 0 0 0 0 0 0 0 0 0 -14 0 0 -33 -28 -24 -22 -11 -9 -24 -8 -46 -21 -95 0
-37 -5 -36 -40 -44 -27 -3 -10 -5 -4 -9 -7 -5 -6 -3 0 0 0 0 0 0 0 0 0 0 0 0 0 0 0 0 -16 -17 -5 -13 -10 -55 0 0 0 0 0 0
-23 -5 -42 -34 -22 -30 -12 -3 -2 -6 -10 -4 0 0 0 0 0 -4 -1 -1 0 0 0 0 0 0 0 0 0 0 0 0 0 -68 -57 0 0 0 0 0 0 0 0
-8 -17 -15 -34 -16 -7 -14 -9 -17 -48 0 0 0 0 0 0 0 -6 -3 -3 0 0 0 0 0 0 0 0 0 0 0 0 0 0 0 0 0 0 0 0 0 0 0
-2 -10 -9 -10 -22 -51 -8 -7 -89 0 0 0 0 0 0 0 0 0 0 0 0 0 0 0 0 0 0 0 0 0 0 0 0 0 0 0 0 0 0 0 0 0 0
-58 -38 -79 0 0 0 0 0 0 0 0 0 0 0 0 0 0 0 0 0 0 0 0 0 0 0 0 0 0 0 0 0 0 0 0 0 0 0 0 0 0 0 0
0 0 0 0 0 0 0 0 0 0 0 0 0 0 0 0 0 0 0 0 0 0 0 0 0 0 0 0 0 0 0 0 0 0 0 0 0 0 0 0 0 0 0
0 0 0 0 0 0 0 0 0 0 0 0 0 0 0 0 0 0 0 0 0 0 0 0 0 0 0 0 0 0 0 0 0 0 0 0 0 0 0 0 0 0 0
0 0 0 0 0 0 0 0 0 0 0 0 0 0 0 0 0 0 0 0 0 0 0 0 0 0 0 0 0 0 0 0 0 0 0 0 0 0 0 0 0 0 0
0 0 0 0 0 0 0 0 0 0 0 0 0 0 0 0 0 0 0 0 0 0 0 0 0 0 0 0 0 0 0 0 0 0 0 0 0 0 0 0 0 0 0
0 0 0 0 0 0 0 0 0 0 0 0 0 0 0 0 0 0 0 0 0 0 0 0 0 0 0 0 0 0 0 0 0 0 0 0 0 0 0 0 0 0 0
0 0 0 0 0 0 0 0 0 0 0 0 0 0 0 0 0 0 0 0 0 0 0 0 0 0 0 0 0 0 0 0 0 0 0 0 0 0 0 0 0 0 0
0 0 0 0 0 0 0 0 0 0 0 0 0 0 0 0 0 0 0 0 0 0 0 0 0 0 0 0 0 0 0 0 0 -2 0 0 0 0 0 0 0 0 0
0 0 0 0 0 0 0 0 0 0 0 0 0 0 0 0 0 0 0 0 0 0 0 0 0 0 -2 0 0 0 0 0 0 0 0 0 0 0 0 0 0 0 0
0 0 0 0 0 0 0 0 0 0 0 0 0 0 0 0 0 0 0 0 0 0 0 0 0 0 0 0 0 0 0 0 0 0 0 0 0 0 0 0 0 0 0
0 0 0 0 0 0 0 0 0 0 -2 0 0 0 0 0 0 0 0 0 0 0 0 0 0 0 0 0 0 0 0 0 -3 0 0 0 0 0 0 0 0 0 0
0 0 0 -3 -3 0 0 0 0 0 -1 0 0 0 0 0 0 0 0 0 0 0 0 0 0 0 0 0 0 0 0 0 0 0 0 0 0 0 0 0 0 0 -3
-2 -4 -10 -2 0 0 0 0 0 0 -1 0 0 0 0 0 0 0 0 0 0 0 0 0 0 0 0 0 0 0 0 -1 0 0 0 0 0 0 0 0 0 0 0
-6 -5 -21 -15 0 0 0 0 -2 -3 -1 0 0 0 0 0 0 0 0 0 0 0 0 0 0 0 0 0 0 -1 -2 -2 0 0 0 0 0 0 0 0 0 0 0
-5 0 0 -33 0 0 0 -2 0 0 0 0 0 0 0 0 0 0 0 0 0 0 0 0 0 0 0 0 0 -6 0 0 0 0 0 0 0 0 0 0 0 0 0
0 -4 0 -14 -22 -8 -15 -6 -3 0 0 0 0 0 0 0 0 0 0 0 0 0 0 0 0 0 0 0 0 0 0 0 0 0 0 0 0 0 0 0 0 0 0
0 0 0 0 -2 0 -5 -1 0 0 0 0 0 0 0 0 0 0 0 0 0 -1 0 0 -1 0 0 0 0 0 0 0 0 0 0 0 0 0 0 0 0 0 0
Wind_Speed
18 18 22 24 24 26 24 18 16 15 15 14 11 9 8 7 7 6 7 10 10 8 12 15 16 17 21 17 19 16 16 18 18 15 13 13 13 9 11 10 10 9 10
17 18 19 19 21 23 22 24 21 19 18 17 15 10 8 7 8 8 7 8 9 10 12 14 17 20 19 20 19 18 16 18 16 12 12 12 11 11 9 10 9 10 9
16 17 16 17 16 18 18 19 21 22 19 15 13 13 11 9 9 8 6 6 8 10 12 13 16 16 16 20 18 18 17 18 16 11 12 11 13 10 10 11 9 9 10
15 15 17 17 15 16 17 17 19 20 20 20 16 14 13 12 11 9 8 9 10 10 14 15 17 17 17 18 20 20 20 20 19 15 11 10 10 9 9 9 9 8 8
15 14 15 16 16 17 17 17 17 17 19 18 18 19 17 15 13 11 11 10 10 10 12 14 15 17 18 17 19 23 25 24 20 20 14 10 7 9 8 10 9 6 11
14 13 13 15 16 16 16 17 17 17 18 17 17 17 17 16 14 13 12 12 11 11 10 12 13 14 14 14 16 19 22 22 18 12 12 10 13 12 12 14 12 12 14
11 10 11 12 12 13 14 15 16 18 19 18 17 17 17 17 16 13 13 12 11 11 11 11 13 14 15 13 17 17 18 18 16 13 10 12 13 16 15 16 17 18 17
10 8 7 9 10 11 13 14 15 16 17 18 18 18 18 19 17 15 12 14 14 15 14 14 13 15 16 13 13 14 15 17 17 15 14 16 17 19 19 18 18 18 18
13 6 4 7 12 13 12 13 13 15 16 17 18 18 18 19 18 15 13 14 14 15 16 16 14 15 15 13 13 13 14 15 17 17 16 17 18 19 21 20 22 22 22
17 11 8 9 10 11 12 13 14 15 16 17 18 19 18 19 20 16 14 13 13 14 15 16 17 15 16 15 13 14 16 18 18 19 19 20 21 22 22 23 26 25 25
14 10 7 8 9 11 12 13 14 14 15 16 17 19 19 18 18 19 17 15 14 14 14 16 17 17 17 17 17 17 18 19 21 22 23 23 21 23 21 22 23 26 28
14 12 10 10 9 10 12 13 14 15 15 16 17 17 17 19 19 19 18 17 15 13 14 16 17 18 20 19 20 21 22 24 24 24 26 24 23 24 27 26 22 22 23
16 15 14 13 13 13 13 13 14 15 14 15 14 15 17 18 17 18 18 17 15 13 15 16 17 18 18 19 19 21 21 23 24 22 23 23 25 24 24 25 23 17 16
17 17 17 16 15 16 15 15 15 15 14 14 15 15 16 17 17 16 16 17 16 15 15 17 18 17 16 18 20 21 22 23 22 23 23 24 24 24 24 25 24 25 26
17 17 17 17 17 17 17 17 16 16 16 15 15 15 15 16 17 17 15 15 15 16 18 16 17 17 18 18 19 20 23 24 24 24 23 24 25 25 25 27 26 25 26
17 18 18 18 18 18 18 19 19 19 19 18 18 17 17 17 17 18 18 17 17 19 17 19 20 21 23 23 24 24 23 25 25 25 25 25 26 26 26 26 26 25 25
16 16 16 17 17 17 18 18 18 19 20 20 20 19 18 17 18 18 19 20 19 20 19 20 21 21 21 22 23 24 26 25 23 24 26 26 27 27 27 27 26 26 25
17 17 16 16 15 16 16 16 16 16 18 20 20 19 18 17 17 18 20 21 19 19 21 22 23 23 24 23 24 25 26 25 26 26 26 26 26 27 27 26 25 23 24
15 15 15 15 15 15 15 15 16 16 15 17 17 18 18 17 18 18 19 20 22 21 22 21 22 23 24 25 25 24 23 22 23 23 25 26 26 26 25 25 25 21 20
16 16 16 14 13 14 14 16 17 17 17 14 15 15 16 16 16 16 17 22 22 23 23 23 22 21 22 23 23 24 24 23 20 24 26 25 25 24 24 24 24 24 23
13 11 15 13 13 16 18 19 18 20 21 19 19 19 17 17 18 20 21 22 22 23 23 23 22 22 21 22 24 23 23 22 22 24 25 24 24 24 24 24 24 24 23
13 13 10 12 16 18 17 16 18 18 17 17 17 19 15 17 19 20 21 21 22 22 22 22 22 22 22 21 21 22 22 22 21 23 24 24 24 23 23 24 24 23 23
17 14 12 13 14 14 14 16 16 14 13 14 13 13 14 18 19 19 20 20 21 20 21 20 20 21 22 22 22 21 22 24 20 21 23 24 21 23 23 24 23 23 22
22 15 18 9 11 12 14 13 12 14 16 14 13 15 17 18 18 18 18 20 19 19 17 21 21 22 23 22 21 22 21 21 21 22 22 19 20 23 23 22 22 22 21
26 15 17 11 11 11 9 9 11 13 13 13 13 14 16 16 17 17 17 17 16 17 20 20 21 22 21 21 21 20 21 21 21 21 20 19 16 20 20 21 20 20 19
22 15 13 13 13 12 10 12 12 12 13 12 13 14 15 15 14 14 15 14 14 17 17 18 18 19 17 19 20 18 18 18 19 20 19 13 12 14 14 13 13 14 14
Wind_Direction
58 67 56 60 68 59 32 355 347 348 343 338 341 14 332 302 278 278 285 264 266 272 273 277 283 291 291 310 300 313 314 314 315 323 324 331 332 344 358 4 7 9 5
67 70 63 69 69 67 76 33 15 19 14 9 22 348 359 338 314 301 300 285 279 282 283 286 291 296 292 301 307 311 318 317 317 319 326 335 340 352 344 15 13 13 17
60 56 60 61 64 64 71 74 60 60 12 350 351 20 19 358 359 354 342 310 307 301 295 299 298 305 305 306 308 312 313 315 325 324 328 329 327 332 345 358 1 12 3
49 51 47 46 58 62 62 63 63 61 59 47 21 16 20 23 15 6 349 322 313 324 299 295 297 304 310 302 304 310 310 310 318 326 328 328 344 346 342 341 348 5 360
31 42 40 42 45 46 50 52 56 66 70 61 53 47 39 27 19 8 358 346 338 328 314 309 305 306 306 313 309 299 302 312 321 318 316 328 347 341 350 343 345 1 341
21 30 40 37 46 50 48 43 54 52 47 59 51 42 28 26 28 27 18 2 348 342 335 337 333 326 325 328 326 327 329 319 320 323 320 337 338 336 332 331 335 329 324
17 25 33 40 48 59 57 40 33 28 31 28 23 23 10 2 1 28 26 19 11 6 357 342 333 328 330 341 337 335 333 343 345 339 345 337 337 333 334 328 324 321 323
4 17 40 45 55 78 48 37 29 25 21 18 11 7 9 357 358 6 30 29 20 8 6 3 3 351 343 357 357 353 352 350 346 345 343 337 333 327 326 325 326 324 323
349 358 48 23 0 13 17 21 22 20 14 9 5 5 5 354 351 5 19 10 4 0 360 358 356 350 349 358 358 355 352 352 350 351 347 343 340 337 331 328 320 317 315
345 349 15 12 12 27 23 6 9 10 9 4 3 356 360 358 351 356 10 10 6 2 360 359 357 356 355 351 353 349 344 338 337 336 338 333 329 330 332 328 317 315 314
9 15 16 17 13 19 17 6 3 2 360 358 359 358 359 355 355 357 0 2 359 355 354 347 345 351 350 346 345 341 335 332 331 327 326 326 326 326 330 330 325 319 315
25 35 37 31 18 18 17 4 358 359 360 355 360 358 4 0 356 2 357 357 358 360 357 352 347 345 339 339 335 330 329 326 324 326 323 318 321 326 325 328 331 331 326
35 43 48 44 32 17 13 11 11 7 7 2 6 10 4 6 11 11 14 15 4 1 5 3 1 359 359 350 346 343 341 334 337 336 334 329 326 328 332 328 331 333 335
40 45 50 47 39 32 25 17 16 18 17 5 11 11 21 24 22 12 16 16 17 9 11 355 0 10 6 359 351 349 348 346 340 337 337 335 334 333 331 332 332 331 327
43 45 44 42 40 37 30 27 26 18 15 12 14 20 19 16 14 7 13 10 10 8 354 5 5 3 2 358 355 351 348 343 339 336 335 333 330 331 331 328 327 327 325
45 47 50 50 49 46 43 37 26 29 27 25 25 23 18 20 17 17 16 15 11 5 8 4 356 354 351 348 346 345 348 344 338 337 336 335 331 329 329 327 325 327 325
48 50 49 48 50 49 48 47 43 30 26 24 22 18 16 16 13 11 8 0 1 1 3 0 357 355 354 352 349 347 344 344 343 339 337 335 333 330 328 326 326 326 327
53 57 50 52 57 51 53 55 51 37 25 18 18 19 18 18 17 12 5 358 2 7 2 358 356 354 353 352 351 349 346 345 344 341 339 338 335 332 329 328 327 330 330
60 51 51 46 41 40 36 29 21 22 25 24 25 24 30 29 21 13 8 6 1 3 1 2 1 358 356 354 352 352 352 352 352 349 345 342 338 334 330 329 327 329 332
27 30 32 33 35 23 19 11 12 16 16 30 26 24 22 18 15 15 19 7 6 3 2 360 0 5 359 359 357 353 351 351 355 351 349 347 346 341 335 331 328 325 325
28 27 354 6 16 359 355 354 1 356 0 8 5 4 6 13 16 12 7 8 6 3 2 0 358 360 2 2 358 355 354 356 359 356 354 353 350 345 339 334 326 319 318
11 8 31 13 351 351 0 359 357 359 2 10 19 21 27 16 14 10 8 6 5 5 5 1 358 358 359 1 360 359 356 358 2 1 358 354 349 346 342 330 319 315 312
335 357 3 359 359 9 11 5 6 11 19 25 29 31 25 13 8 9 8 8 6 7 8 8 7 4 2 1 0 2 360 359 11 7 3 358 355 349 338 309 302 304 314
309 345 340 19 22 11 6 17 29 16 17 23 23 14 11 10 8 12 9 8 11 13 17 12 9 7 3 2 3 5 10 9 7 4 3 7 359 343 325 284 298 308 300
314 349 346 10 13 15 24 21 26 21 17 10 11 11 7 8 7 10 14 16 19 21 18 20 19 16 15 12 17 16 13 13 13 14 16 18 26 295 275 314 310 290 277
325 359 2 358 1 9 17 10 10 10 6 8 5 2 3 5 12 18 18 24 26 23 27 27 33 38 48 38 28 32 31 34 35 28 32 61 207 244 262 249 233 240 238